Regional Weather Roundup
Issued by NWS

Home | Current Version | Previous Version | Graphics & Text | Print | Product List | Glossary On
Versions: 1 2 3 4 5 6 7 8 9 10 11 12 13 14 15 16 17 18 19 20 21 22 23 24 25 26 27 28 29 30 31 32 33 34 35 36 37 38 39 40 41 42 43 44 45 46 47 48 49 50
000
ASUS43 KOAX 152310
RWRNE

WEATHER ROUNDUP FOR NEBRASKA
NATIONAL WEATHER SERVICE OMAHA NE
500 PM CST SUN JAN 15 2017

NOTES: SATELLITE DATA IS BEING USED TO AUGMENT CLOUD COVER ABOVE
       12000 FEET.
       "FAIR" INDICATES FEW OR NO CLOUDS BELOW 12,000 FEET WITH NO
       SIGNIFICANT WEATHER AND/OR OBSTRUCTIONS TO VISIBILITY.

  * THESE STATIONS DO NOT REPORT WEATHER SUCH AS RAIN...SNOW OR FOG.

NEZ001>004-019>022-054>056-160000-
NEBRASKA PANHANDLE

CITY           SKY/WX    TMP DP  RH WIND       PRES   REMARKS
SCOTTSBLUFF    CLOUDY    39  25  57 CALM      29.99F
ALLIANCE       CLOUDY    38  23  55 NE3       29.99F
CHADRON        CLOUDY    31  24  75 CALM      30.03F
KIMBALL        CLOUDY    37  27  67 NE7       29.98S WCI  31
SIDNEY         CLOUDY    32  24  72 E6        29.99F WCI  26
$$

NEZ057>060-069>072-079>082-160000-
SOUTHWEST NEBRASKA

CITY           SKY/WX    TMP DP  RH WIND       PRES   REMARKS
NORTH PLATTE   MIX PCPN  31  28  89 S5        30.07R FOG     WCI  26
IMPERIAL       FRZ RAIN  30  28  92 CALM      30.04S FOG
LEXINGTON      MIX PCPN  31  28  92 E3        30.09S
MCCOOK         MIX PCPN  31  30  96 NE7       30.06F FOG     WCI  24
OGALLALA       MIX PCPN  32  30  92 CALM      30.04S
$$

NEZ005>010-023>029-035>040-094-160000-
NORTH CENTRAL NEBRASKA

CITY           SKY/WX    TMP DP  RH WIND       PRES   REMARKS
VALENTINE      CLOUDY    40  19  43 SE5       30.03F
AINSWORTH      CLOUDY    37  27  66 S3        30.05S
BROKEN BOW     CLOUDY    31  28  89 S7        30.08S FOG     WCI  24
O`NEILL        CLOUDY    35  24  63 S6        30.10S WCI  30
ORD            CLOUDY    32  25  75 S5        30.10F WCI  27
THEDFORD       CLOUDY    37  25  61 S6        30.05S WCI  33
$$

NEZ041-046>049-061>064-073>077-083>087-160000-
SOUTH CENTRAL NEBRASKA

CITY           SKY/WX    TMP DP  RH WIND       PRES   REMARKS
GRAND ISLAND   MIX PCPN  30  30 100 SE5       30.13S FOG     WCI  25
AURORA         MIX PCPN  30  29  96 SE5       30.13S WCI  25
HASTINGS       CLOUDY    30  28  92 SE5       30.13S WCI  25
HEBRON         MIX PCPN  31  29  94 E3        30.14F
HOLDREGE       MIX PCPN  30  28  94 E3        30.09S
KEARNEY *      CLOUDY    30  27  86 CALM      30.11S
YORK           CLOUDY    30  30 100 CALM      30.15S
$$

NEZ011>018-030>034-042>045-160000-
NORTHEAST NEBRASKA

CITY           SKY/WX    TMP DP  RH WIND       PRES   REMARKS
NORFOLK        CLOUDY    32  23  69 S7        30.14F WCI  26
ALBION         CLOUDY    32  26  78 SE3       30.13F
BLAIR          MIX PCPN  31  28  90 E6        30.19F WCI  25
FREMONT        MIX PCPN  31  29  94 CALM      30.19F
TEKAMAH        MIX PCPN  31  26  82 S10       30.21S WCI  22
WAYNE          CLOUDY    32  24  73 SE6       30.16F WCI  26
$$

NEZ050>053-065>068-078-088>093-160000-
SOUTHEAST NEBRASKA

CITY           SKY/WX    TMP DP  RH WIND       PRES   REMARKS
LINCOLN        FRZ RAIN  31  29  92 E6        30.20S FOG     WCI  25
OMAHA EPPLEY   FRZ RAIN  31  26  82 E6        30.21F FOG     WCI  25
BEATRICE       LGT RAIN  32  31  96 E5        30.17S WCI  27
FALLS CITY     FRZ RAIN  31  30  96 E8        30.18F FOG     WCI  23
NEBRASKA CITY  MIX PCPN  31  31  99 E6        30.18F WCI  25
PLATTSMOUTH    MIX PCPN  31  28  88 E7        30.19F WCI  24
$$

NEZ044-045-051>053-067-160000-
OMAHA AREA

CITY           SKY/WX    TMP DP  RH WIND       PRES   REMARKS
OMAHA EPPLEY   FRZ RAIN  31  26  82 E6        30.21F FOG     WCI  25
BLAIR          MIX PCPN  31  28  90 E6        30.19F WCI  25
FREMONT        MIX PCPN  31  29  94 CALM      30.19F
MILLARD        LGT RAIN  32  30  92 E3        30.20F
OFFUTT AFB     FRZ RAIN  32  32 100 E5        30.20S FOG     WCI  27
PLATTSMOUTH    MIX PCPN  31  28  88 E7        30.19F WCI  24
WAHOO          MIX PCPN  31  29  93 E6        30.19F WCI  25
$$




USA.gov is the U.S. government's official web portal to all federal, state and local government web resources and services.